Regional Weather Roundup
Issued by NWS Charleston, SC

Home | Current Version | Previous Version | Text Only | Print | Product List | Glossary On
Versions: 1 2 3 4 5 6 7 8 9 10 11 12 13 14 15 16 17 18 19 20 21 22 23 24 25 26 27 28 29 30 31 32 33 34 35 36 37 38 39 40 41 42 43 44 45 46 47 48 49 50
000
ASUS42 KCHS 260825
RWRCHS

REGIONAL WEATHER ROUNDUP
NATIONAL WEATHER SERVICE CHARLESTON SC
400 AM EDT SUN OCT 26 2014

NOTE: "FAIR" INDICATES FEW OR NO CLOUDS BELOW 12,000 FEET WITH NO
SIGNIFICANT WEATHER AND/OR OBSTRUCTIONS TO VISIBILITY.

NOT ALL STATIONS ARE QUALITY CONTROLLED BY THE NATIONAL
WEATHER SERVICE. USE DATA WITH CAUTION...ESPECIALLY
DEWPOINT OBSERVATIONS.

SCZ027-030-031-034>040-042>050-260900-
...SOUTH CAROLINA...

CITY           SKY/WX    TMP DP  RH WIND       PRES   REMARKS
N CHARLESTON   CLEAR     54  47  77 CALM      29.92F
WATERFRONT PRK   N/A     59 N/A N/A W5          N/A
FORT JOHNSON   NOT AVBL
JOHNS ISLAND   SUNNY     55  54  94 CALM      29.91F
PINOPOLIS      NOT AVBL
MONCKS CORNER  FAIR      52  50  93 CALM      29.90F
SUMMERVILLE    FAIR      46  46 100 CALM      29.92F
BEAUFORT MCAS  CLEAR     54  49  83 SW7       29.92F
BEAUFORT ARPT  FAIR      55  55 100 CALM      29.91F
HILTON HEAD IS   N/A     55  54  94 S3        29.94F
GEORGETOWN     NOT AVBL
WALTERBORO     SUNNY     48 N/A N/A W3        29.92S
ORANGEBURG     CLEAR     49  46  90 CALM      29.92S
BARNWELL       FAIR      46  45  93 CALM      29.94S
AIKEN          FAIR      52  48  87 CALM      29.96S
MANNING        FAIR      46 N/A N/A CALM      29.91S
KINGSTREE      NOT AVBL
COLUMBIA       CLEAR     49  44  83 CALM      29.91F
SUMTER         CLEAR     55  46  69 W6        29.89F
FLORENCE       CLEAR     55  45  68 W7        29.89F
MYRTLE BEACH   CLEAR     54  46  76 W8        29.89S
N MYRTLE BEACH CLEAR     56  44  64 W7        29.88F

$$

GAZ063-065-086>088-099>101-113>116-118-119-134-136>141-150-260900-
...GEORGIA...

CITY           SKY/WX    TMP DP  RH WIND       PRES   REMARKS
SAVANNAH ARPT  CLEAR     53  47  79 CALM      29.94F
HUNTER AAF     CLEAR     52  51  97 S1        29.92F
FORT STEWART   CLEAR     49  47  91 CALM      29.94F
STATESBORO     NOT AVBL
SYLVANIA       SUNNY     52  51  96 CALM      29.94S
CLAXTON        FAIR      46  46 100 CALM      29.95S
THOMSON        CLEAR     57  56  97 NW3       29.98F
AUGUSTA-BUSH   CLEAR     44  43  96 CALM      29.94S
AUGUSTA-DANIEL CLEAR     59  50  72 NW5       29.94S
SWAINSBORO     FAIR      54  50  87 MISG      29.96S
VIDALIA        CLEAR     54  48  82 SW3       29.96S
ALMA           CLEAR     49  46  90 CALM      29.96F FOG
WAYCROSS       CLEAR     52  51  95 CALM      29.97S
JESUP          FAIR      46  46 100 CALM      29.96F
BRUNSWICK      CLEAR     54  52  94 CALM      29.96S
SAINT SIMONS   CLEAR     57  54  89 W6        29.96F

$$

SCZ027-028-034-036>038-045-046-048>050-GAZ119-141-260900-
...LAKE AND SUPPLEMENTAL COASTAL OBSERVATIONS...

STATION/POSITION TIME  TEMP    WIND        PRES    WAVE   SWELL
                       AIR SEA DIR/SP/G            HT/PER HT/PER/DIR
                 (UTC) (F)     (DEG/KT/KT) (MB)    (FT/S) (FT/S/D)
UPR LAKE MARION  NOT AVBL
WINYAH BAY       0800   56     350/  2     1012.0S
LAKE MURRAY      0800   58     290/  4/  7 1012.5S
ACE BASIN NERRS  0800   54        CALM     1013.0S
FORT PULASKI     0800   59     220/  2/  4 1013.8F
SAPELO ISLAND    NOT AVBL

$$

ANZ835-935-AMZ111-154-330-350-352-354-374-450-454-472-260900-
...C-MAN AND BUOY OBSERVATIONS...

STATION/POSITION TIME  TEMP    WIND        PRES    WAVE   SWELL
                       AIR SEA DIR/SP/G            HT/PER HT/PER/DIR
                 (UTC) (F)     (DEG/KT/KT) (MB)    (FT/S) (FT/S/D)
FOLLY BEACH CMAN 0800   59     250/  5/  5 1013.3F
BUOY 41004       0800   72 77  280/ 14/ 16 1012.4F   2/10   2/10
BUOY 41008       0800   69 74  270/ 12/ 14 1014.1F   2/ 9   2/100/ 9
5E ST. MARYS GA  0800      75                N/A     2/11
FRYING PAN BUOY  0800   71 73  270/ 16/ 17 1012.1F   3/ 4   2/100/ 9
BUOY 41025       0800   69     260/ 21/ 25 1008.3F   4/ 5   2/ 50/ 9
CAPE LOOKOUT NC  0800   67     260/ 16/ 22 1009.1F
BUOY 41002       0651   73 76  310/ 12/ 14 1011.2    3/ 9   2/ 10/ 9
BUOY 41010       0800   75 81  350/ 10/ 12 1013.1S   4/ 6   3/ 90/ 6
BUOY 41012       NOT AVBL
ST AUGUSTINE FL  0800   59     280/  7/  8 1015.0F
CAPERS NEARSHORE NOT AVBL
FRIPP NEARSHORE  NOT AVBL


$$



USA.gov is the U.S. government's official web portal to all federal, state and local government web resources and services.